DW7253 Weather Reports


Display with metric or nautical units.
time (UTC)temp
F
wind
direction
speed
MPH
gust
MPH
rain 1hr
in
rain 24hr
in
rain mn
in
humidity
%
barometer
mb
20260906094530 66 75 2.0 7.0 0.00 0.00 0.00 82 1013.2
20260906093026 67 104 0.0 4.0 0.00 0.00 0.00 83 1013.2
20260906091527 67 98 0.0 5.0 0.00 0.00 0.00 82 1013.0
20260906090025 67 140 1.0 7.0 0.00 0.00 0.00 83 1013.0
20260906084521 68 93 2.0 10.0 0.00 0.00 0.00 85 1012.8
20260906083023 68 71 2.0 4.0 0.00 0.00 0.00 85 1012.8
20260906081518 68 70 0.0 4.0 0.00 0.00 0.00 84 1012.8
20260906080026 68 89 1.0 5.0 0.00 0.00 0.00 84 1012.6
20260906074515 69 76 2.0 7.0 0.00 0.00 0.00 84 1012.6
20260906073015 69 68 3.0 5.0 0.00 0.00 0.00 83 1012.7
20260906071512 69 93 1.0 6.0 0.00 0.00 0.00 83 1012.7
20260906070011 70 66 2.0 8.0 0.00 0.00 0.00 82 1012.8
20260906064508 70 93 1.0 6.0 0.00 0.00 0.00 82 1012.6
20260906063009 71 68 2.0 5.0 0.00 0.00 0.00 81 1012.6
20260906061506 71 67 2.0 6.0 0.00 0.00 0.00 82 1012.6
20260906060004 71 84 1.0 6.0 0.00 0.00 0.00 82 1012.4
20260906054502 71 74 2.0 6.0 0.00 0.00 0.00 82 1012.3
20260906053001 71 80 1.0 5.0 0.00 0.00 0.00 82 1012.3
20260906051503 71 67 1.0 6.0 0.00 0.00 0.00 82 1012.3
20260906050059 71 82 1.0 8.0 0.00 0.00 0.00 82 1012.1
20260906044558 71 67 2.0 4.0 0.00 0.00 0.00 83 1012.1
20260906043102 71 64 2.0 7.0 0.00 0.00 0.00 83 1012.1
20260906041600 71 64 3.0 6.0 0.00 0.00 0.00 83 1011.9
20260906040053 71 69 2.0 5.0 0.00 0.00 0.00 83 1011.7
20260906034551 71 71 1.0 6.0 0.00 0.00 0.00 83 1011.7
20260906033104 71 71 1.0 5.0 0.00 0.00 0.00 83 1011.5
20260906031547 72 75 2.0 6.0 0.00 0.00 0.00 82 1011.5
20260906030050 72 59 1.0 6.0 0.00 0.00 0.00 82 1011.3
20260906024548 72 61 3.0 7.0 0.00 0.00 0.00 82 1011.3
20260906023050 72 76 1.0 8.0 0.00 0.00 0.00 82 1011.2
20260906021542 73 57 4.0 11.0 0.00 0.00 0.00 81 1011.1
20260906020052 73 76 4.0 11.0 0.00 0.00 0.00 81 1010.9
20260906014538 74 81 5.0 9.0 0.00 0.00 0.00 79 1010.7
20260906013048 74 65 4.0 10.0 0.00 0.00 0.00 79 1010.8
20260906011549 75 77 4.0 13.0 0.00 0.00 0.00 78 1010.6
20260906010039 76 69 5.0 11.0 0.00 0.00 0.00 77 1010.3
20260906004532 77 90 6.0 10.0 0.00 0.00 0.00 76 1010.0
20260906003032 78 73 5.0 10.0 0.00 0.00 0.00 73 1010.0
20260906001531 79 29 2.0 8.0 0.00 0.00 0.00 72 1009.8
20260906000046 80 43 3.0 7.0 0.00 0.00 0.00 70 1009.6
20260905234530 81 59 2.0 8.0 0.00 0.00 0.00 69 1009.4
20260905233029 82 26 2.0 6.0 0.00 0.00 0.00 68 1009.3
20260905231530 82 14 4.0 10.0 0.00 0.00 0.00 72 1009.3
20260905230029 82 358 3.0 12.0 0.00 0.00 0.00 70 1009.1
20260905224532 83 356 2.0 11.0 0.00 0.00 0.00 69 1008.9
20260905223028 85 42 1.0 7.0 0.00 0.00 0.00 67 1008.9
20260905221527 85 13 3.0 10.0 0.00 0.00 0.00 67 1008.6
20260905220027 85 19 3.0 10.0 0.00 0.00 0.00 67 1008.5
20260905214526 85 328 3.0 11.0 0.00 0.00 0.00 67 1008.4
20260905213029 86 313 4.0 12.0 0.00 0.00 0.00 64 1008.3
20260905211525 87 320 3.0 11.0 0.00 0.00 0.00 62 1008.2
20260905210024 87 12 3.0 11.0 0.00 0.00 0.00 63 1008.2
20260905204533 87 353 1.0 9.0 0.00 0.00 0.00 63 1008.3
20260905203022 87 359 5.0 12.0 0.00 0.00 0.00 62 1008.4
20260905201522 87 354 4.0 9.0 0.00 0.00 0.00 62 1008.6
20260905200027 86 26 4.0 9.0 0.00 0.00 0.00 64 1008.6
20260905194518 87 64 1.0 8.0 0.00 0.00 0.00 64 1008.7
20260905193015 87 360 1.0 10.0 0.00 0.00 0.00 64 1008.8
20260905191514 86 358 2.0 5.0 0.00 0.00 0.00 65 1008.9
20260905190013 86 36 2.0 5.0 0.00 0.00 0.00 67 1009.0
20260905184533 85 64 1.0 7.0 0.00 0.00 0.00 66 1009.2
20260905183032 85 5 2.0 6.0 0.00 0.00 0.00 66 1009.4
20260905181508 84 358 2.0 6.0 0.00 0.00 0.00 68 1009.5
20260905180005 84 60 0.0 3.0 0.00 0.00 0.00 69 1009.6
20260905174501 82 99 0.0 4.0 0.00 0.00 0.00 72 1009.7
20260905173109 81 135 0.0 3.0 0.00 0.00 0.00 73 1009.9
20260905171612 82 151 1.0 3.0 0.00 0.00 0.00 72 1010.0
20260905170055 81 138 1.0 3.0 0.00 0.00 0.00 74 1010.0
20260905164552 80 262 0.0 3.0 0.00 0.00 0.00 75 1010.1
20260905163053 80 236 0.0 3.0 0.00 0.00 0.00 75 1010.1
20260905161550 79 242 0.0 3.0 0.00 0.00 0.00 76 1010.2
20260905160052 79 247 1.0 4.0 0.00 0.00 0.00 76 1010.2
20260905154609 78 128 0.0 5.0 0.00 0.00 0.00 76 1010.1
20260905153048 78 109 2.0 4.0 0.00 0.00 0.00 76 1010.1
20260905151545 78 126 1.0 4.0 0.00 0.00 0.00 76 1010.0
20260905150043 78 182 0.0 3.0 0.00 0.00 0.00 77 1010.0
20260905144541 77 211 0.0 4.0 0.00 0.00 0.00 78 1009.8
20260905143040 76 268 1.0 7.0 0.00 0.00 0.00 80 1009.8
20260905141538 75 211 3.0 8.0 0.00 0.00 0.00 80 1009.7
20260905140041 74 194 2.0 6.0 0.00 0.00 0.00 80 1009.7
20260905134533 74 202 1.0 9.0 0.00 0.00 0.00 82 1009.4
20260905133041 73 249 4.0 7.0 0.00 0.00 0.00 82 1009.2
20260905131533 73 203 3.0 7.0 0.00 0.00 0.00 83 1009.4
20260905130032 73 239 3.0 7.0 0.00 0.00 0.00 84 1009.3
20260905124531 72 159 3.0 7.0 0.00 0.00 0.00 85 1009.3
20260905123026 73 183 0.0 5.0 0.00 0.00 0.00 86 1009.4
20260905121524 73 148 1.0 4.0 0.00 0.00 0.00 86 1009.2
20260905120021 73 147 1.0 4.0 0.00 0.00 0.00 86 1009.1
20260905114520 73 194 3.0 7.0 0.00 0.00 0.00 86 1008.9
20260905113016 73 175 3.0 5.0 0.00 0.00 0.00 85 1008.7
20260905111528 73 147 0.0 4.0 0.00 0.00 0.00 84 1008.5
20260905110031 72 146 1.0 4.0 0.00 0.00 0.00 83 1008.4
20260905104513 73 145 0.0 3.0 0.00 0.00 0.00 82 1008.4
20260905103013 73 145 0.0 2.0 0.00 0.00 0.00 82 1008.5
20260905101512 73 145 0.0 5.0 0.00 0.00 0.00 83 1008.5
20260905100012 73 180 0.0 5.0 0.00 0.00 0.00 83 1008.3